When you browse on this site, cookies collect data to enhance your experience and personalize the content and advertising you see.
Visit our Privacy Policy to learn more. By continuing to use the site, you agree to this use of cookies and data.
  • In Hungary
  • List of Countries
  • For 7 days
  • Water Temperature
  • Weather Map
  • News
  • Weather Widgets
  • user-avatar
    Login

    Hourly Weather Spicino

    Today, 20 January, Monday

    Time Temperature Precipitation Wind Pressure Humidity
    00:00 0°C° 0 mm 4 mps 748 mmHg 89%
    01:00 -1°C° 0 mm 5 mps 748 mmHg 89%
    02:00 -1°C° 0 mm 5 mps 749 mmHg 89%
    03:00 -1°C° 0 mm 5 mps 749 mmHg 90%
    04:00 -1°C° 0 mm 5 mps 748 mmHg 90%
    05:00 -1°C° 0 mm 4 mps 748 mmHg 90%
    06:00 -1°C° 0 mm 4 mps 748 mmHg 90%
    07:00 -1°C° 0 mm 4 mps 749 mmHg 90%
    08:00 -1°C° 0 mm 4 mps 749 mmHg 89%
    09:00 -1°C° 0 mm 5 mps 749 mmHg 91%
    10:00 -1°C° 0 mm 5 mps 749 mmHg 92%
    11:00 -1°C° 0 mm 5 mps 749 mmHg 93%
    12:00 -1°C° 0 mm 5 mps 749 mmHg 92%
    13:00 -1°C° 0 mm 5 mps 749 mmHg 90%
    14:00 -1°C° 0 mm 5 mps 749 mmHg 89%
    15:00 -1°C° 0 mm 5 mps 748 mmHg 88%
    16:00 -1°C° 0 mm 5 mps 748 mmHg 86%
    17:00 -1°C° 0 mm 5 mps 748 mmHg 84%
    18:00 -1°C° 0 mm 5 mps 747 mmHg 82%
    19:00 -1°C° 0 mm 5 mps 747 mmHg 80%
    20:00 -2°C° 0 mm 5 mps 746 mmHg 78%
    21:00 -2°C° 0 mm 5 mps 746 mmHg 77%
    22:00 -2°C° 0 mm 5 mps 745 mmHg 76%
    23:00 -3°C° 0 mm 6 mps 744 mmHg 75%

    Tomorrow, 21 January, Tuesday

    Time Temperature Precipitation Wind Pressure Humidity
    00:00 -1°C° 0 mm 5 mps 744 mmHg 77%
    01:00 -1°C° 0 mm 5 mps 743 mmHg 79%
    02:00 -1°C° 0 mm 5 mps 743 mmHg 82%
    03:00 -2°C° 0 mm 6 mps 742 mmHg 84%
    04:00 -2°C° 0 mm 6 mps 741 mmHg 87%
    05:00 -2°C° 0 mm 6 mps 740 mmHg 89%
    06:00 -1°C° 0.2 mm 6 mps 739 mmHg 90%
    07:00 -1°C° 0.2 mm 6 mps 739 mmHg 90%
    08:00 +1°C° 0.2 mm 6 mps 738 mmHg 91%
    09:00 +1°C° 0 mm 6 mps 738 mmHg 91%
    10:00 +2°C° 0 mm 6 mps 737 mmHg 91%
    11:00 +2°C° 0 mm 6 mps 737 mmHg 90%
    12:00 +2°C° 0 mm 6 mps 736 mmHg 91%
    13:00 +2°C° 0 mm 5 mps 736 mmHg 92%
    14:00 +3°C° 0 mm 5 mps 735 mmHg 92%
    15:00 +3°C° 0.6 mm 6 mps 734 mmHg 92%
    16:00 +3°C° 0.6 mm 6 mps 733 mmHg 91%
    17:00 +3°C° 0.6 mm 6 mps 732 mmHg 90%
    18:00 +3°C° 1 mm 6 mps 732 mmHg 88%
    19:00 +3°C° 1 mm 6 mps 733 mmHg 86%
    20:00 +2°C° 1 mm 6 mps 733 mmHg 84%
    21:00 +1°C° 0.1 mm 6 mps 733 mmHg 82%
    22:00 -1°C° 0.1 mm 6 mps 733 mmHg 79%
    23:00 -1°C° 0.1 mm 6 mps 733 mmHg 76%

    Day after tomorrow, 22 January, Wednesday

    Time Temperature Precipitation Wind Pressure Humidity
    00:00 -2°C° 0 mm 6 mps 733 mmHg 76%
    01:00 -2°C° 0 mm 6 mps 733 mmHg 75%
    02:00 -3°C° 0 mm 6 mps 733 mmHg 74%
    03:00 -3°C° 0 mm 6 mps 733 mmHg 75%
    04:00 -2°C° 0 mm 5 mps 733 mmHg 76%
    05:00 -2°C° 0 mm 5 mps 732 mmHg 77%
    06:00 -4°C° 0.1 mm 6 mps 732 mmHg 81%
    07:00 -4°C° 0.1 mm 6 mps 731 mmHg 85%
    08:00 -4°C° 0.1 mm 6 mps 730 mmHg 89%
    09:00 -4°C° 0.1 mm 6 mps 730 mmHg 84%
    10:00 -3°C° 0.1 mm 6 mps 730 mmHg 79%
    11:00 -3°C° 0.1 mm 6 mps 730 mmHg 75%
    12:00 -2°C° 0.4 mm 5 mps 730 mmHg 74%
    13:00 -2°C° 0.4 mm 5 mps 729 mmHg 73%
    14:00 -2°C° 0.4 mm 5 mps 729 mmHg 71%
    15:00 -4°C° 0 mm 5 mps 730 mmHg 73%
    16:00 -4°C° 0 mm 5 mps 730 mmHg 75%
    17:00 -5°C° 0 mm 5 mps 730 mmHg 77%
    18:00 -5°C° 0.1 mm 5 mps 731 mmHg 80%
    19:00 -5°C° 0.1 mm 5 mps 731 mmHg 83%
    20:00 -5°C° 0.1 mm 5 mps 731 mmHg 86%
    21:00 -5°C° 0.1 mm 5 mps 732 mmHg 84%
    22:00 -5°C° 0.1 mm 5 mps 732 mmHg 82%
    23:00 -5°C° 0.1 mm 5 mps 733 mmHg 80%

    23 January, Thursday

    Time Temperature Precipitation Wind Pressure Humidity
    00:00 -6°C° 0.1 mm 5 mps 733 mmHg 76%
    01:00 -6°C° 0.1 mm 6 mps 734 mmHg 73%
    02:00 -8°C° 0.1 mm 6 mps 735 mmHg 69%
    03:00 -8°C° 0 mm 6 mps 735 mmHg 67%
    04:00 -9°C° 0 mm 6 mps 736 mmHg 66%
    05:00 -9°C° 0 mm 6 mps 736 mmHg 64%
    06:00 -9°C° 0 mm 6 mps 737 mmHg 60%
    07:00 -9°C° 0 mm 6 mps 737 mmHg 57%
    08:00 -8°C° 0 mm 5 mps 737 mmHg 54%
    09:00 -8°C° 0 mm 6 mps 738 mmHg 56%
    10:00 -8°C° 0 mm 6 mps 738 mmHg 59%
    11:00 -7°C° 0 mm 7 mps 739 mmHg 62%
    12:00 -7°C° 0 mm 7 mps 739 mmHg 61%
    13:00 -6°C° 0 mm 6 mps 739 mmHg 60%
    14:00 -6°C° 0 mm 6 mps 739 mmHg 60%
    15:00 -6°C° 0 mm 5 mps 740 mmHg 61%
    16:00 -7°C° 0 mm 4 mps 740 mmHg 62%
    17:00 -6°C° 0 mm 3 mps 740 mmHg 64%
    18:00 -6°C° 0 mm 3 mps 740 mmHg 66%
    19:00 -7°C° 0 mm 3 mps 740 mmHg 68%
    20:00 -6°C° 0 mm 2 mps 740 mmHg 71%
    21:00 -5°C° 0 mm 2 mps 740 mmHg 72%
    22:00 -6°C° 0 mm 3 mps 740 mmHg 74%
    23:00 -6°C° 0 mm 3 mps 740 mmHg 75%

    24 January, Friday

    Time Temperature Precipitation Wind Pressure Humidity
    00:00 -6°C° 0.1 mm 3 mps 739 mmHg 80%
    01:00 -5°C° 0.1 mm 4 mps 738 mmHg 86%
    02:00 -5°C° 0.1 mm 4 mps 737 mmHg 91%
    03:00 -6°C° 0.7 mm 5 mps 736 mmHg 92%
    04:00 -6°C° 0.7 mm 5 mps 734 mmHg 93%
    05:00 -5°C° 0.7 mm 5 mps 733 mmHg 93%
    06:00 -4°C° 0.9 mm 5 mps 732 mmHg 94%
    07:00 -2°C° 0.9 mm 5 mps 732 mmHg 95%
    08:00 0°C° 0.9 mm 5 mps 731 mmHg 96%
    09:00 0°C° 0 mm 5 mps 731 mmHg 93%
    10:00 +1°C° 0 mm 5 mps 731 mmHg 91%
    11:00 +2°C° 0 mm 6 mps 731 mmHg 88%
    12:00 +1°C° 0 mm 6 mps 731 mmHg 83%
    13:00 +1°C° 0 mm 6 mps 731 mmHg 77%
    14:00 -1°C° 0 mm 6 mps 732 mmHg 72%
    15:00 -2°C° 0 mm 6 mps 732 mmHg 72%
    16:00 -1°C° 0 mm 5 mps 733 mmHg 72%
    17:00 -2°C° 0 mm 5 mps 733 mmHg 71%
    18:00 -3°C° 0 mm 4 mps 734 mmHg 72%
    19:00 -3°C° 0 mm 4 mps 734 mmHg 73%
    20:00 -4°C° 0 mm 4 mps 734 mmHg 74%
    21:00 -4°C° 0 mm 4 mps 734 mmHg 75%
    22:00 -4°C° 0 mm 3 mps 734 mmHg 76%
    23:00 -4°C° 0 mm 3 mps 735 mmHg 78%

    25 January, Saturday

    Time Temperature Precipitation Wind Pressure Humidity
    00:00 -4°C° 0 mm 3 mps 735 mmHg 81%
    01:00 -4°C° 0 mm 3 mps 735 mmHg 84%
    02:00 -3°C° 0 mm 2 mps 735 mmHg 88%
    03:00 -3°C° 0 mm 2 mps 735 mmHg 90%
    04:00 -3°C° 0 mm 2 mps 735 mmHg 93%
    05:00 -3°C° 0 mm 2 mps 735 mmHg 95%
    06:00 -2°C° 0 mm 2 mps 735 mmHg 96%
    07:00 -1°C° 0 mm 2 mps 735 mmHg 96%
    08:00 +1°C° 0 mm 2 mps 735 mmHg 97%
    09:00 0°C° 0 mm 3 mps 735 mmHg 96%
    10:00 +1°C° 0 mm 3 mps 735 mmHg 95%
    11:00 +1°C° 0 mm 3 mps 736 mmHg 94%
    12:00 +1°C° 0 mm 3 mps 735 mmHg 92%
    13:00 +1°C° 0 mm 3 mps 735 mmHg 91%
    14:00 +1°C° 0 mm 3 mps 735 mmHg 89%
    15:00 +1°C° 0 mm 3 mps 735 mmHg 91%
    16:00 +1°C° 0 mm 3 mps 735 mmHg 93%
    17:00 +1°C° 0 mm 3 mps 735 mmHg 95%
    18:00 +1°C° 0 mm 3 mps 735 mmHg 95%
    19:00 +1°C° 0 mm 3 mps 735 mmHg 96%
    20:00 +1°C° 0 mm 3 mps 735 mmHg 96%
    21:00 +1°C° 0.1 mm 3 mps 735 mmHg 96%
    22:00 +1°C° 0.1 mm 3 mps 735 mmHg 96%
    23:00 +1°C° 0.1 mm 3 mps 735 mmHg 97%
    Show more